TimeCDT,TemperatureF,Dew PointF,Humidity,Sea Level PressureIn,VisibilityMPH,Wind Direction,Wind SpeedMPH,Gust SpeedMPH,PrecipitationIn,Events,Conditions,WindDirDegrees,DateUTC
12:15 AM,8.6,-4.0,57,30.13,10.0,WNW,13.8,-,N/A,,Clear,290,2013-03-20 05:15:00
12:35 AM,8.6,-4.0,57,30.13,10.0,WNW,13.8,-,N/A,,Clear,290,2013-03-20 05:35:00
12:55 AM,8.6,-4.0,57,30.13,10.0,WNW,13.8,-,N/A,,Clear,290,2013-03-20 05:55:00
1:15 AM,6.8,-5.8,56,30.14,10.0,WNW,13.8,-,N/A,,Clear,300,2013-03-20 06:15:00
1:35 AM,6.8,-5.8,56,30.14,10.0,WNW,11.5,-,N/A,,Clear,290,2013-03-20 06:35:00
1:55 AM,5.0,-5.8,61,30.14,10.0,WNW,10.4,-,N/A,,Clear,290,2013-03-20 06:55:00
2:15 AM,5.0,-5.8,61,30.14,10.0,WNW,9.2,-,N/A,,Clear,290,2013-03-20 07:15:00
2:35 AM,5.0,-5.8,61,30.14,10.0,WNW,10.4,-,N/A,,Clear,290,2013-03-20 07:35:00
2:55 AM,5.0,-5.8,61,30.13,10.0,West,10.4,-,N/A,,Clear,280,2013-03-20 07:55:00
3:15 AM,5.0,-5.8,61,30.13,10.0,WNW,10.4,-,N/A,,Clear,290,2013-03-20 08:15:00
3:35 AM,5.0,-4.0,66,30.13,10.0,WNW,11.5,16.1,N/A,,Clear,290,2013-03-20 08:35:00
3:55 AM,5.0,-4.0,66,30.12,10.0,WNW,11.5,17.3,N/A,,Clear,290,2013-03-20 08:55:00
4:15 AM,5.0,-4.0,66,30.12,10.0,WNW,10.4,-,N/A,,Clear,290,2013-03-20 09:15:00
4:35 AM,3.2,-4.0,72,30.12,10.0,WNW,10.4,-,N/A,,Clear,290,2013-03-20 09:35:00
4:55 AM,3.2,-4.0,72,30.13,10.0,WNW,11.5,-,N/A,,Clear,290,2013-03-20 09:55:00
5:15 AM,3.2,-5.8,66,30.13,10.0,WNW,10.4,-,N/A,,Clear,290,2013-03-20 10:15:00
5:35 AM,3.2,-5.8,66,30.13,10.0,WNW,11.5,-,N/A,,Clear,290,2013-03-20 10:35:00
5:55 AM,3.2,-5.8,66,30.13,10.0,West,11.5,-,N/A,,Clear,280,2013-03-20 10:55:00
6:15 AM,3.2,-5.8,66,30.14,10.0,WNW,11.5,-,N/A,,Clear,290,2013-03-20 11:15:00
6:35 AM,3.2,-5.8,66,30.14,10.0,WNW,11.5,-,N/A,,Clear,290,2013-03-20 11:35:00
6:55 AM,3.2,-5.8,66,30.14,10.0,WNW,11.5,-,N/A,,Clear,290,2013-03-20 11:55:00
7:15 AM,3.2,-5.8,66,30.14,10.0,WNW,16.1,19.6,N/A,,Clear,290,2013-03-20 12:15:00
7:35 AM,3.2,-5.8,66,30.14,10.0,WNW,13.8,-,N/A,,Clear,290,2013-03-20 12:35:00
7:55 AM,5.0,-4.0,66,30.14,10.0,WNW,13.8,-,N/A,,Clear,300,2013-03-20 12:55:00
8:15 AM,5.0,-4.0,66,30.14,10.0,WNW,13.8,-,N/A,,Clear,290,2013-03-20 13:15:00
8:35 AM,6.8,-4.0,61,30.14,10.0,WNW,16.1,21.9,N/A,,Clear,300,2013-03-20 13:35:00
8:55 AM,6.8,-4.0,61,30.14,10.0,NW,13.8,-,N/A,,Clear,310,2013-03-20 13:55:00
9:15 AM,8.6,-4.0,57,30.13,10.0,NW,17.3,27.6,N/A,,Clear,310,2013-03-20 14:15:00
9:35 AM,8.6,-2.2,62,30.13,10.0,WNW,19.6,27.6,N/A,,Clear,300,2013-03-20 14:35:00
9:55 AM,8.6,-2.2,62,30.13,10.0,NW,17.3,27.6,N/A,,Clear,310,2013-03-20 14:55:00
10:15 AM,10.4,-2.2,57,30.13,10.0,NW,18.4,24.2,N/A,,Clear,310,2013-03-20 15:15:00
10:35 AM,10.4,-0.4,62,30.13,10.0,NW,15.0,24.2,N/A,,Clear,310,2013-03-20 15:35:00
10:55 AM,10.4,-0.4,62,30.12,10.0,NW,18.4,23.0,N/A,,Clear,310,2013-03-20 15:55:00
11:15 AM,12.2,-0.4,57,30.12,10.0,WNW,18.4,21.9,N/A,,Clear,290,2013-03-20 16:15:00
11:35 AM,12.2,-0.4,57,30.12,10.0,WNW,18.4,24.2,N/A,,Clear,300,2013-03-20 16:35:00
11:55 AM,12.2,1.4,62,30.12,10.0,WNW,17.3,-,N/A,,Clear,300,2013-03-20 16:55:00
12:15 PM,14.0,1.4,57,30.11,10.0,NW,12.7,-,N/A,,Clear,320,2013-03-20 17:15:00
12:35 PM,14.0,1.4,57,30.11,10.0,NW,15.0,20.7,N/A,,Clear,310,2013-03-20 17:35:00
12:55 PM,14.0,1.4,57,30.11,10.0,WNW,17.3,23.0,N/A,,Clear,300,2013-03-20 17:55:00
1:15 PM,15.8,1.4,53,30.11,10.0,WNW,17.3,24.2,N/A,,Scattered Clouds,300,2013-03-20 18:15:00
1:35 PM,17.6,3.2,53,30.10,10.0,WNW,15.0,24.2,N/A,,Clear,290,2013-03-20 18:35:00
1:55 PM,17.6,3.2,53,30.09,10.0,NW,12.7,25.3,N/A,,Clear,320,2013-03-20 18:55:00
2:15 PM,17.6,3.2,53,30.09,10.0,NW,13.8,20.7,N/A,,Clear,310,2013-03-20 19:15:00
2:35 PM,19.4,3.2,49,30.08,10.0,NNW,16.1,20.7,N/A,,Scattered Clouds,330,2013-03-20 19:35:00
2:55 PM,19.4,5.0,54,30.08,10.0,NNW,15.0,-,N/A,,Scattered Clouds,340,2013-03-20 19:55:00
3:15 PM,19.4,5.0,54,30.08,10.0,WNW,15.0,23.0,N/A,,Scattered Clouds,300,2013-03-20 20:15:00
3:35 PM,19.4,5.0,54,30.08,10.0,NW,15.0,19.6,N/A,,Mostly Cloudy,310,2013-03-20 20:35:00
3:55 PM,19.4,5.0,54,30.07,10.0,NW,16.1,19.6,N/A,,Mostly Cloudy,320,2013-03-20 20:55:00
4:15 PM,19.4,5.0,54,30.07,10.0,NNW,11.5,18.4,N/A,,Mostly Cloudy,340,2013-03-20 21:15:00
4:35 PM,19.4,5.0,54,30.07,10.0,NNW,13.8,17.3,N/A,,Scattered Clouds,340,2013-03-20 21:35:00
4:55 PM,21.2,5.0,50,30.07,10.0,NW,13.8,19.6,N/A,,Scattered Clouds,310,2013-03-20 21:55:00
5:15 PM,21.2,5.0,50,30.07,10.0,WNW,13.8,-,N/A,,Scattered Clouds,290,2013-03-20 22:15:00
5:35 PM,21.2,3.2,46,30.07,10.0,WNW,11.5,16.1,N/A,,Clear,290,2013-03-20 22:35:00
5:55 PM,21.2,3.2,46,30.07,10.0,WNW,13.8,-,N/A,,Clear,290,2013-03-20 22:55:00
6:15 PM,21.2,3.2,46,30.08,10.0,WNW,11.5,-,N/A,,Scattered Clouds,300,2013-03-20 23:15:00
6:35 PM,21.2,3.2,46,30.08,10.0,NW,11.5,-,N/A,,Mostly Cloudy,310,2013-03-20 23:35:00
6:55 PM,19.4,5.0,54,30.08,10.0,NW,9.2,-,N/A,,Mostly Cloudy,310,2013-03-20 23:55:00
7:15 PM,17.6,3.2,53,30.08,10.0,NW,4.6,-,N/A,,Mostly Cloudy,320,2013-03-21 00:15:00
7:35 PM,17.6,3.2,53,30.09,10.0,NW,3.5,-,N/A,,Mostly Cloudy,320,2013-03-21 00:35:00
7:55 PM,17.6,3.2,53,30.09,10.0,NNW,4.6,-,N/A,,Overcast,330,2013-03-21 00:55:00
8:15 PM,17.6,3.2,53,30.09,10.0,NW,4.6,-,N/A,,Mostly Cloudy,310,2013-03-21 01:15:00
8:35 PM,15.8,3.2,58,30.09,10.0,WNW,4.6,-,N/A,,Mostly Cloudy,300,2013-03-21 01:35:00
8:55 PM,15.8,5.0,62,30.09,10.0,WNW,4.6,-,N/A,,Overcast,290,2013-03-21 01:55:00
9:15 PM,15.8,5.0,62,30.09,10.0,WNW,5.8,-,N/A,,Overcast,290,2013-03-21 02:15:00
9:35 PM,15.8,5.0,62,30.09,10.0,WNW,5.8,-,N/A,,Mostly Cloudy,290,2013-03-21 02:35:00
9:55 PM,14.0,3.2,62,30.09,10.0,WNW,6.9,-,N/A,,Clear,300,2013-03-21 02:55:00
10:15 PM,14.0,3.2,62,30.09,10.0,WNW,5.8,-,N/A,,Clear,300,2013-03-21 03:15:00
10:35 PM,12.2,1.4,62,30.09,10.0,WNW,4.6,-,N/A,,Clear,290,2013-03-21 03:35:00
10:55 PM,14.0,3.2,62,30.09,10.0,WNW,5.8,-,N/A,,Clear,300,2013-03-21 03:55:00
11:15 PM,8.6,-0.4,67,30.09,10.0,WNW,3.5,-,N/A,,Clear,300,2013-03-21 04:15:00
11:35 PM,8.6,-0.4,67,30.09,10.0,NNW,3.5,-,N/A,,Clear,330,2013-03-21 04:35:00
11:55 PM,5.0,-0.4,78,30.10,10.0,Calm,Calm,-,N/A,,Clear,0,2013-03-21 04:55:00